Погода в Дашогузе

Поиск расширенной информации на нашем сайте:

Полезная информация:

Новости сайта



14.11.2019
Обновлён Долгосрочный прогноз погоды по России и другим странам хСССР на ноябрь-декабрь 2019 года.
Опубликованы прогностические карты: Предварительный прогноз на декабрь 2019 года, Предварительный прогноз на январь 2020 года, Предварительная схема синоптических процессов на декабрь 2019 г..

11.11.2019
Обновлены Долгосрочный прогноз погоды по России и другим странам хСССР на ноябрь-декабрь 2019 года и Предварительный прогноз на зиму 2019/2020 годов

04.11.2019
Опубликован Долгосрочный прогноз погоды по России и другим странам хСССР на ноябрь 2019 года
Сравнение прогнозируемой аномалии приземной температуры воздуха на ноябрь 2019 года по разным моделям
Предварительный прогноз на зиму 2019/2020 года




Погода в Дашогузе - сегодня

Время (UTC), дата Ветер
(°,м/с) 
Видим.   Явления Облачность Т
(°С)
Тd
(°С)
f(%) Тe
(°С)
Pmin
(гПа)
dP
(гПа)
Po
(мм)
O2
(г/м3)
Тmin Tmax R s Состояние
почвы
21 17.11.19 350 (С) 10 км    ясно 
-4 -12.3 52 -4  1034.6  -0.5  768  315           
00 18.11.19 020 (С) 10 км    ясно 
-4.6 -11.2 60 -6  1034  -0.6  767  316           
03 18.11.19 020 (С) 10 км    ясно 
-4.7 -11.4 59 -6  1035  768  316  -6        замёрзшая 
06 18.11.19 нст () 10 км    ясно 
+4.2 -7.8 41 +5  1034.3  -0.4  768  306  -6         
09 18.11.19 140 (ЮВ) 10 км    3/0 верхняя 
[Ci fib]
+8.2 -8.6 29 +9  1032.4  -1.7  767  301           
12 18.11.19 060 (СВ) 10 км    3/0 верхняя 
[Ci fib]
+8.8 -10.3 25 +9  1031.2  -1.1  766  300           
15 18.11.19 040 (СВ) 10 км    8/0 верхняя 
[Ci sp]
+3.4 -8.7 41 +3  1030.9  -0.6  765  305    +9.7       
18 18.11.19 030 (СВ) 4000 м    8/0 верхняя 
[Ci sp]
+0.2 -9.2 49 -1  1030.3  -0.7  765  309    +9.7       
21 18.11.19 110 (В) 4000 м    4/0 верхняя 
[Ci fib]
-1.9 -10.3 53 -3  1029.1  -1.2  764  311           
00 19.11.19 060 (СВ) 10 км    8/0 верхняя 
[Ci sp]
-2.4 -9.7 57 -3  1028.3  -0.8  763  311           
03 19.11.19 нст () 4000 м    8/0 верхняя 
[Ci sp]
-3.3 -9.7 61 -3  1027.5  -0.9  763  312  -3.7        замёрзшая 
06 19.11.19 220 (ЮЗ) 10 км    4/0 верхняя 
[Cc]
+3.6 -11.1 33 +3  1027.8  0.6  763  304  -3.7         
09 19.11.19 340 (С) 10 км    4/0 верхняя 
[Ci sp]
+8.7 -8.6 28 +9  1025.6  -2.1  761  298           
12 19.11.19 320 (СЗ) 10 км    8/0 средняя 
[Ac trans]
+9.6 -10.7 23 +10  1024  -1.4  760  297           
15 19.11.19 350 (С) 4000 м    8/0 средняя 
[Ac trans]
+6.2 -8.1 35 +6  1023.9  -0.3  760  300    +10.4       
18 19.11.19 250 (З) 4000 м    8/0 средняя 
[Ac trans]
+4.2 -8.8 38 +5  1023.5  -0.5  760  302    +10.4       
21 19.11.19 320 (СЗ) 10 км    9/0 средняя 
[Ac trans]
+3.7 -7.8 43 +3  1022.5  -1  759  303           
00 20.11.19 010 (С) 10 км    9/0 средняя 
[Ac trans]
+3.3 -4.6 56 +1  1021.6  -0.9  758  302           
03 20.11.19 340 (С) 10 км    9/0 средняя 
[Ac trans]
+1.2 -4.8 64 1022.3  0.7  759  305  +1        сухая 
06 20.11.19 010 (С) 10 км    9/0 средняя 
[Ac As]
+2.6 -6.4 51 +1  1022.8  0.5  759  304  +1         
09 20.11.19 010 (С) 10 км    8/0 средняя, верхняя 
[Ac trans|Ci fib]
+1.8 -6.3 55 -1  1022.2  -0.6  759  304           
12 20.11.19 030 (СВ) 10 км    3/0 верхняя 
[Ci fib]
+2.4 -5.9 54 1022.7  0.5  759  304           
15 20.11.19 010 (С) 10 км    3/0 верхняя 
[Ci fib]
-2.2 -6.5 72 -5  1024.5  1.6  760  310    +4.4       
18 20.11.19 030 (СВ) 10 км    3/0 верхняя 
[Ci fib]
-2.6 -6.7 73 -7  1025.8  1.3  761  310    +4.4       
21 20.11.19 030 (СВ) 10 км    5/0 средняя 
[Ac trans]
-3.2 -7.1 74 -8  1027  1.2  762  312           
Время (UTC), дата Ветер
(°,м/с) 
Видим.   Явления Облачность Т
(°С)
Тd
(°С)
f(%) Тe
(°С)
Pmin
(гПа)
dP
(гПа)
Po
(мм)
O2
(г/м3)
Тmin Tmax R s Состояние
почвы

Для получения пояснительной информации подведите курсор к названию столбца.

ПОГОДА в Дашогузе - архив

Всё, что Вы хотите узнать о погоде в Дашогузе - удобно и подробно!

Выберите нужную дату (начиная с 1 января 2019* года) и нажмите кнопку "Найти".
Будут отображены архивные сводки погоды по пункту Дашогуз, начиная с указанной даты.


Отображать данные в формате CSV (для использования в таблицах Excel)


Внимание! Наш архив погоды предназначен исключительно для личного некоммерческого использования в познавательных целях. Если Вам необходимы официальные справки о состоянии погоды (для производственных, юридических, коммерческих и т.п. целей), обращайтесь в органы Росгидромета.

*Примечание: данная дата относится к архиву по метеостанциям СССР (Россия, СНГ, Балтия).
Архив по метеостанциям Зарубежной Европы и Азии (кроме Китая) хранится 10 дней, по другим регионам земного шара (Китай, Африка, Америка, Австралия, Океания) - 1 день.

Дашогуз - район местоположения метеостанции


Название, широта, долгота, высота метеостанции:
Дашогуз (Ташауз) 41.8°ш. 59.8°д. 82 м над ур. моря [Туркменистан]

Дополнительная информация

В oтличие oт бoльшинства пoгoдных сайтoв мы публикуем пoдрoбную метеoинфoрмацию в детальнoм прoфессиoнальнoм фoрмате.

Характеристики температуры и влажнoсти вoздуха измеряются на высoте 2 м в тени вдали oт зданий и деревьев.
Скoрoсть ветра измеряется на высoте 10 м (на урoвне рoста челoвека скoрoсть ветра ниже в 1.5-2 раза). Если метеoстанция нахoдится в гoрoде или в лесу, тo скoрoсть ветра занижена на 2-4 м/с пo сравнению с oткрытым местoм. Скoрoсть ветра над акватoриями крупных рек и oзёр, а также на вершинах хoлмoв на 2-5 м/с выше, чем в oбычных услoвиях.
Атмoсфернoе давление в разных тoчках местнoсти мoжет значительнo oтличаться oт давления на метеoстанции, в зависимoсти oт услoвий рельефа (при пoдъёме на 10 м давление пoнижается примернo на 1 мм рт.ст.).